Location: Goldmont Forest
(38.0233°N, 120.2524°W)
Time: 08:46:19
(UTC+00:00)

IRIDIUM 106 - Pass Details

Date: 07 November 2024
Orbit: 776 x 779 km, 86.4° (Epoch: 06 December)

Event Time Altitude Azimuth Distance (km) Brightness Sun altitude
Rises 03:14:29 0° 181° (S) 3,245 7.6 -27.5°
Reaches altitude 10° 03:16:49 10° 182° (S) 2,322 6.8 -28.0°
Enters shadow 03:18:10 19° 182° (S) 1,799 6.2 -28.3°
Exits shadow 03:29:36 - 2° (N) 3,258 7.6 -30.5°
Sets 03:29:38 0° 2° (N) 3,268 7.6 -30.5°
